星链-11226 (STARLINK-11226)

导读 | 星芒AI

STARLINK-11226 是 SpaceX Starlink 卫星互联网项目中的一颗低轨道卫星,属于第53批部署的“星链”卫星之一。该卫星于2022年发射,旨在为全球用户提供高速互联网服务。它运行在约550公里高的近地轨道,采用先进的通信技术,支持宽带接入和低延迟数据传输。Starlink 项目计划部署数千颗卫星,以构建覆盖全球的卫星网络。STARLINK-11226 在提升偏远地区网络覆盖和推动全球数字连接方面发挥着重要作用。

基本信息
目录编号:
60907
目录名称:
STARLINK-11226
国际标识:
2024-154E
轨道中心:
EARTH
卫星名称:
星链-11226
卫星全名:
星链-11226 (STARLINK-11226)
卫星状态:
在轨 (已飞行471 天)
发射日期:
2024-08-31 UTC
国别 :
美国 (US)
星等 :
--
轨道信息
数据来源 国际轨道数据
星历时间: 2025-12-14T17:14:23+0800
1天前
查看轨道信息
半长轴: 6737.898km
偏心率: 0.0000728
轨道倾角: 53.159°
近地点辐角 104.591°
升交点赤经 191.984°
平近点角 255.519°
近地点: 359.272km
远地点: 360.254km
周期: 91.737分钟
每日圈数: 15.696981
详细信息
固有亮度:
5
最大亮度:
2.5
卫星平台:
Starlink V1.0
覆盖范围:
全球
运营商:
太空探索技术公司
运营商所在国:
美国
制造商(研发单位):
太空探索技术公司
制造商所在国:
美国
使用方式:
暂无
卫星简介
Starlink 计划是 SpaceX 推出的全球卫星互联网项目,通过发射低轨道卫星,为全球尤其是偏远地区提供高速、低延迟的互联网服务。自 2019 年起,Starlink 已部署数千颗卫星,旨在缩小全球数字鸿沟,推动互联网普及。该项目还为军事、航空等行业提供通信支持,带来广泛经济效益。
2D轨道图
3D轨道图
轨道高度分析图
轨道倾角分析图
轨道综合分析图
查看轨道综合分析图